Location: Az?znagar
(16.8373°N, 80.5091°E)
Time: 01:55:02
(UTC+00:00)

Nadezhda 4 Rocket - Pass Details

Date: 04 July 2022
Orbit: 949 x 992 km, 82.9° (Epoch: 09 August)

Event Time Altitude Azimuth Distance (km) Brightness Sun altitude
Rises 23:20:48 0° 173° (S) 3,665 6.8 -11.3°
Reaches altitude 10° 23:23:22 10° 169° (SSE) 2,713 6.2 -10.7°
Maximum altitude 23:29:25 56° 92° (E) 1,140 4.8 -9.5°
Drops below altitude 10° 23:35:24 10° 16° (NNE) 2,689 7.0 -8.2°
Sets 23:37:56 0° 12° (NNE) 3,630 7.6 -7.6°
